Powrót do katalogu

COSMOS 2251 DEB

AktywnyVLEO
NORAD 34128·DEBRIS·🇷🇺 Russia

Wystrzelony Jun 16, 1993 z Plesetsk Cosmodrome

Loading…

Następne Przeloty (najbliższe 24 godziny)

TLE

ŚwieżeSource: Space-Track

Epoka: Sep 14, 2026, 12:28 UTC

1 34128U 93036KZ  26257.51990053  .00036895  00000-0  16407-2 0  9994
2 34128  73.9869  84.8391 0022718 136.1918 255.2255 15.21097803933337

Śledź COSMOS 2251 DEB w czasie rzeczywistym z AllMySat

Download on the App Store